Погода Шарья

Погода Шарья : погода сейчас, прогноз погоды и архив. Всё, что Вы хотите узнать о погоде Шарья!

Хотите узнать прогноз погоды Шарья? Тогда Вам сюда: Погода Шарья

Поиск расширенной информации на нашем сайте:

Другие новости

Новости СМИ2

Главная страница сайта

Новости сайта

03.07.2017

Напоминаем, что на нашем специализированном сайте Метеоцентр.Азия вы можете получить высокодетализированные автоматические прогнозы погоды по пунктам России, СНГ и мира в авиационном формате (включающие направление и скорость ветра, видимость, явления погоды, количество и форму облачности, нижнюю и верхнюю границу облачности).

Рекомендуем: Чемпионат техника выполнения упражнений по бодибилдингу.

Погода Шарья - сегодня

Время (UTC), дата Ветер
(°,м/с) 
Видим.   Явления Облачность Т
(°С)
Тd
(°С)
f(%) Тe
(°С)
Pmin
(гПа)
dP
(гПа)
Po
(мм)
O2
(г/м3)
Тmin Tmax R s Состояние
почвы
06 14.02.18 тихо ()   10 км    3/0 верхняя 
[Ci fib]
-24.2 -27.2 76 -24  1036.3  0.9  764  340  -27.7         
09 14.02.18 340 (С) 10 км    1/0 верхняя 
[Ci fib]
-13.3 -17.3 72 -13  1036.4  0.8  765  325           
12 14.02.18 тихо ()   10 км    1/0 верхняя 
[Ci fib]
-6.8 -13 61 -7  1035.9  0.1  765  317           
15 14.02.18 тихо ()   10 км    ясно 
-17.5 -19 88 -18  1037.2  0.7  765  331    -6.4       
18 14.02.18 тихо ()   10 км    ясно 
-22.3 -24.5 82 -22  1038  0.4  765  338           
21 14.02.18 тихо ()   10 км    ясно 
-25.1 -27.8 78 -25  1038.8  0.6  766  342           
00 15.02.18 тихо ()   10 км    ясно 
-25.5 -28.3 77 -26  1039.4  0.5  766  342           
03 15.02.18 тихо ()   1000 м  дым  10/0 средняя 
[As trans]
-24.3 -27 78 -24  1039.9  0.6  767  341  -26.1      69  равномерный
сухой снег
100% 
09 15.02.18 тихо ()   1000 м  в посл. час туман  ясно 
-14.8 -16.7 85 -15  1040.9  0.7  768  329           
12 15.02.18 тихо ()   1000 м  дым{туман}  ясно 
-10.4 -14.9 69 -10  1040.8  0.2  768  323           
18 15.02.18 тихо ()   10 км    ясно 
-23.7 -26.1 80 -24  1040.8  -0.4  767  340           
21 15.02.18 тихо ()   10 км    ясно 
-26.5 -29.4 76 -27  1040.9  0.1  767  344           
00 16.02.18 тихо ()   10 км    ясно 
-27.9 -31 75 -28  1041.1  0.1  767  346           
03 16.02.18 тихо ()   10 км    ясно 
-28.2 -31.4 74 -28  1040.2  -0.9  767  346  -28.2      68  равномерный
сухой снег
100% 
06 16.02.18 тихо ()   10 км    10/0 средняя, верхняя 
[Ac trans|Ci sp]
-20.1 -22.9 78 -20  1039.5  0.1  767  335  -28.6         
09 16.02.18 180 (Ю) 10 км  слаб. снег  10/0 средняя 
[Ac As]
-11.3 -13.9 81 -13  1038.4  -0.5  766  323           
12 16.02.18 150 (ЮВ) 10 км  слаб. снег  10/0 средняя 
[Ac As]
-9 -12.1 78 -11  1037  -1.2  765  320           
18 16.02.18 190 (Ю) 4000 м  слаб. снег  10/0 средняя 
[As op]
-7.7 -9.4 88 -9  1035  -0.9  764  318           
21 16.02.18 170 (Ю) 4000 м  слаб. снег  10/0 средняя 
[As op]
-7.2 -8.8 88 -9  1034.4  -0.6  763  317           
00 17.02.18 180 (Ю) 4000 м  слаб. снег  10/0 средняя 
[As op]
-6.4 -7.9 89 -8  1034.1  -0.2  763  316           
03 17.02.18 170 (Ю) 10 км  {снег}  10/0 средняя 
[Ac und]
-6.4 -8.1 88 -8  1033.6  -0.5  763  316  -8.8    69  равномерный
сухой снег
100% 
09 17.02.18 170 (Ю) 10 км  {снег}  10/0 средняя 
[Ac und]
-3 -6.8 75 -4  1032.3  -0.7  762  311           
12 17.02.18 150 (ЮВ) 10 км  {снег}  10/0 средняя, верхняя 
[Ac trans|Ci fib]
-2.1 -6.9 70 -4  1030.7  -1.5  761  310           
18 17.02.18 160 (Ю) 10 км  слаб. снег  10/0 средняя 
[Ac As]
-5.1 -7.5 83 -6  1029.2  -0.8  760  313           
21 17.02.18 180 (Ю) 10 км  слаб. снег  10/0 средняя 
[Ac As]
-6.1 -8 86 -9  1029  -0.3  760  314           
Время (UTC), дата Ветер
(°,м/с) 
Видим.   Явления Облачность Т
(°С)
Тd
(°С)
f(%) Тe
(°С)
Pmin
(гПа)
dP
(гПа)
Po
(мм)
O2
(г/м3)
Тmin Tmax R s Состояние
почвы

Для получения пояснительной информации подведите курсор к названию столбца.

ПОГОДА Шарья - архив

Всё, что Вы хотите узнать о погоде Шарья - удобно и подробно!

Выберите нужную дату (начиная с 1 января 2015* года) и нажмите кнопку "Найти".
Будут отображены архивные сводки погоды по пункту Шарья, начиная с указанной даты.


Отображать данные в формате CSV (для использования в таблицах Excel)


Внимание! Наш архив погоды предназначен исключительно для личного некоммерческого использования в познавательных целях. Если Вам необходимы официальные справки о состоянии погоды (для производственных, юридических, коммерческих и т.п. целей), обращайтесь в органы Росгидромета.

*Примечание: данная дата относится к архиву по метеостанциям СССР (Россия, СНГ, Балтия).
Архив по метеостанциям Зарубежной Европы и Азии (кроме Китая) хранится 10 дней, по другим регионам земного шара (Китай, Африка, Америка, Австралия, Океания) - 1 день.

Шарья - район местоположения метеостанции


Название, широта, долгота, высота метеостанции:
Шарья 58.4°ш. 45.5°д. 125 м над ур. моря [Российская Федерация]

Дополнительная информация

В oтличие oт бoльшинства пoгoдных сайтoв мы публикуем пoдрoбную метеoинфoрмацию в детальнoм прoфессиoнальнoм фoрмате.

Характеристики температуры и влажнoсти вoздуха измеряются на высoте 2 м в тени вдали oт зданий и деревьев.
Скoрoсть ветра измеряется на высoте 10 м (на урoвне рoста челoвека скoрoсть ветра ниже в 1.5-2 раза). Если метеoстанция нахoдится в гoрoде или в лесу, тo скoрoсть ветра занижена на 2-4 м/с пo сравнению с oткрытым местoм. Скoрoсть ветра над акватoриями крупных рек и oзёр, а также на вершинах хoлмoв на 2-5 м/с выше, чем в oбычных услoвиях.
Атмoсфернoе давление в разных тoчках местнoсти мoжет значительнo oтличаться oт давления на метеoстанции, в зависимoсти oт услoвий рельефа (при пoдъёме на 10 м давление пoнижается примернo на 1 мм рт.ст.).